�������l�o���
Date,Time,MP-1(��Sv/h),MP-2(��Sv/h),MP-3(��Sv/h),MP-4(��Sv/h),MP-5(��Sv/h),MP-6(��Sv/h),MP-7(��Sv/h),MP-8(��Sv/h),����,����(m/s),���J
2023/10/15,00:00,0.526,0.800,0.491,0.996,0.721,0.321,0.572,0.530,��쐼,3.5,��
2023/10/15,00:10,0.527,0.801,0.493,0.996,0.720,0.322,0.572,0.531,��쐼,3.6,��
2023/10/15,00:20,0.526,0.799,0.493,0.996,0.721,0.320,0.572,0.530,�쐼,3.8,��
2023/10/15,00:30,0.527,0.801,0.491,0.994,0.720,0.321,0.571,0.532,��쐼,3.7,��
2023/10/15,00:40,0.528,0.802,0.492,0.994,0.722,0.322,0.572,0.531,�쐼,3.3,��
2023/10/15,00:50,0.528,0.801,0.491,0.994,0.722,0.321,0.573,0.533,�쐼,3.9,��
2023/10/15,01:00,0.525,0.801,0.493,0.995,0.721,0.321,0.572,0.533,���쐼,4.2,��
2023/10/15,01:10,0.527,0.802,0.492,0.994,0.721,0.321,0.572,0.531,���쐼,4.0,��
2023/10/15,01:20,0.527,0.800,0.493,0.996,0.722,0.321,0.572,0.532,���쐼,3.8,��
2023/10/15,01:30,0.525,0.799,0.492,0.996,0.720,0.321,0.571,0.533,�쐼,3.7,��
2023/10/15,01:40,0.526,0.802,0.494,0.995,0.722,0.321,0.572,0.531,�쐼,2.8,��
2023/10/15,01:50,0.527,0.802,0.493,0.994,0.721,0.321,0.574,0.532,���쐼,2.2,��
2023/10/15,02:00,0.525,0.801,0.493,0.995,0.722,0.322,0.572,0.533,��,2.0,��
2023/10/15,02:10,0.526,0.800,0.491,0.994,0.721,0.320,0.572,0.532,��,1.7,��
2023/10/15,02:20,0.525,0.799,0.492,0.996,0.721,0.322,0.572,0.533,��,1.2,��
2023/10/15,02:30,0.527,0.801,0.493,0.997,0.722,0.322,0.572,0.532,���k��,1.2,��
2023/10/15,02:40,0.527,0.801,0.492,0.997,0.719,0.322,0.573,0.532,�k��,0.9,��
2023/10/15,02:50,0.526,0.800,0.492,0.997,0.722,0.320,0.571,0.532,���k��,1.1,��
2023/10/15,03:00,0.528,0.801,0.493,0.997,0.721,0.322,0.572,0.532,�k��,1.7,��
2023/10/15,03:10,0.526,0.803,0.492,0.998,0.724,0.321,0.571,0.533,���k��,1.5,��
2023/10/15,03:20,0.527,0.801,0.492,0.996,0.721,0.321,0.573,0.532,�k��,1.2,��
2023/10/15,03:30,0.527,0.802,0.492,0.996,0.722,0.322,0.570,0.531,���k��,0.6,��
2023/10/15,03:40,0.527,0.801,0.492,0.996,0.721,0.321,0.572,0.532,�k��,0.8,��
2023/10/15,03:50,0.528,0.801,0.493,0.996,0.722,0.322,0.571,0.532,���k��,1.2,��
2023/10/15,04:00,0.527,0.800,0.492,0.995,0.722,0.322,0.572,0.533,�k��,0.9,��
2023/10/15,04:10,0.527,0.802,0.493,0.997,0.721,0.320,0.571,0.535,���k��,0.8,��
2023/10/15,04:20,0.527,0.801,0.493,0.995,0.722,0.322,0.571,0.534,�k��,1.7,��
2023/10/15,04:30,0.528,0.803,0.493,0.997,0.722,0.322,0.571,0.532,���k��,1.7,�L
2023/10/15,04:40,0.530,0.803,0.494,0.998,0.721,0.322,0.572,0.532,���쐼,1.2,�L
2023/10/15,04:50,0.528,0.803,0.496,0.998,0.722,0.324,0.572,0.533,��,1.5,�L
2023/10/15,05:00,0.530,0.803,0.495,0.998,0.724,0.323,0.572,0.533,�k��,0.6,�L
2023/10/15,05:10,0.528,0.802,0.495,0.998,0.722,0.323,0.572,0.534,-,CALM,�L
2023/10/15,05:20,0.528,0.801,0.494,0.999,0.724,0.323,0.572,0.533,���k��,0.6,�L
2023/10/15,05:30,0.529,0.802,0.493,0.998,0.722,0.324,0.571,0.533,��,0.6,�L
2023/10/15,05:40,0.528,0.802,0.496,1.000,0.723,0.324,0.571,0.534,��,1.1,�L
2023/10/15,05:50,0.530,0.801,0.495,0.997,0.722,0.325,0.572,0.533,��,1.2,�L
2023/10/15,06:00,0.530,0.801,0.495,0.998,0.724,0.325,0.572,0.533,��,1.7,�L
2023/10/15,06:10,0.530,0.801,0.495,0.998,0.723,0.325,0.573,0.533,��,2.0,�L
2023/10/15,06:20,0.530,0.800,0.494,0.997,0.722,0.325,0.572,0.532,��쓌,2.0,�L
2023/10/15,06:30,0.528,0.800,0.495,0.996,0.722,0.325,0.571,0.533,�쓌,1.7,�L
2023/10/15,06:40,0.526,0.798,0.495,0.996,0.722,0.325,0.571,0.534,�쓌,1.5,�L
2023/10/15,06:50,0.527,0.798,0.492,0.995,0.719,0.325,0.569,0.533,��쓌,0.9,�L
2023/10/15,07:00,0.526,0.795,0.491,0.995,0.717,0.326,0.569,0.530,��쓌,0.6,�L
2023/10/15,07:10,0.525,0.790,0.490,0.992,0.716,0.323,0.567,0.530,��쓌,1.2,�L
2023/10/15,07:20,0.523,0.788,0.489,0.988,0.711,0.324,0.566,0.529,��쓌,1.7,�L
2023/10/15,07:30,0.522,0.786,0.489,0.987,0.709,0.323,0.565,0.529,�쓌,2.2,�L
2023/10/15,07:40,0.518,0.783,0.487,0.983,0.705,0.320,0.565,0.528,��,2.0,�L
2023/10/15,07:50,0.517,0.780,0.486,0.980,0.702,0.321,0.564,0.527,-,CALM,�L
2023/10/15,08:00,0.515,0.777,0.485,0.979,0.699,0.318,0.563,0.526,-,CALM,�L
2023/10/15,08:10,0.514,0.774,0.485,0.973,0.695,0.317,0.560,0.524,���쐼,2.9,�L
2023/10/15,08:20,0.512,0.772,0.483,0.969,0.693,0.317,0.559,0.521,-,CALM,�L
2023/10/15,08:30,0.511,0.769,0.482,0.968,0.692,0.317,0.559,0.523,-,CALM,�L
2023/10/15,08:40,0.510,0.766,0.482,0.964,0.691,0.315,0.558,0.521,-,CALM,�L
2023/10/15,08:50,0.507,0.766,0.481,0.962,0.691,0.317,0.558,0.523,-,CALM,�L
2023/10/15,09:00,0.509,0.766,0.482,0.960,0.686,0.317,0.558,0.520,��,2.2,�L
2023/10/15,09:10,0.508,0.765,0.480,0.960,0.689,0.316,0.556,0.522,���k��,2.0,�L
2023/10/15,09:20,0.509,0.767,0.480,0.959,0.686,0.316,0.557,0.521,��,2.6,�L
2023/10/15,09:30,0.505,0.765,0.479,0.956,0.687,0.316,0.557,0.521,�k��,2.5,�L
2023/10/15,09:40,0.506,0.761,0.479,0.955,0.685,0.316,0.556,0.520,�k��,2.8,�L
2023/10/15,09:50,0.506,0.762,0.478,0.954,0.684,0.315,0.556,0.520,�k��,2.5,�L
2023/10/15,10:00,0.506,0.759,0.479,0.955,0.684,0.316,0.554,0.520,�k��,2.3,�L
2023/10/15,10:10,0.505,0.758,0.478,0.953,0.684,0.316,0.556,0.520,���k��,3.0,�L
2023/10/15,10:20,0.506,0.758,0.479,0.954,0.682,0.316,0.554,0.519,�k��,2.6,�L
2023/10/15,10:30,0.504,0.758,0.479,0.950,0.682,0.316,0.557,0.519,�k��,2.0,�L
2023/10/15,10:40,0.505,0.758,0.479,0.950,0.682,0.315,0.556,0.519,�k�k��,2.3,�L
2023/10/15,10:50,0.504,0.758,0.477,0.950,0.680,0.317,0.553,0.519,�k�k��,3.1,�L
2023/10/15,11:00,0.503,0.753,0.477,0.946,0.680,0.317,0.554,0.519,�k��,3.0,�L
2023/10/15,11:10,0.504,0.756,0.479,0.947,0.680,0.317,0.555,0.518,�k��,3.4,�L
2023/10/15,11:20,0.503,0.755,0.476,0.946,0.679,0.318,0.556,0.519,�k��,3.5,�L
2023/10/15,11:30,0.504,0.756,0.476,0.944,0.680,0.315,0.555,0.520,�k��,4.2,�L
2023/10/15,11:40,0.505,0.756,0.476,0.948,0.681,0.316,0.555,0.519,�k��,3.4,�L
2023/10/15,11:50,0.504,0.755,0.477,0.948,0.681,0.316,0.556,0.518,�k��,3.8,�L
2023/10/15,12:00,0.505,0.758,0.477,0.948,0.680,0.315,0.556,0.520,�k��,3.9,�L
2023/10/15,12:10,0.503,0.750,0.477,0.944,0.680,0.316,0.555,0.518,�k��,4.6,�L
2023/10/15,12:20,0.503,0.751,0.475,0.942,0.675,0.315,0.554,0.517,�k��,5.0,�L
2023/10/15,12:30,0.499,0.750,0.475,0.941,0.675,0.316,0.553,0.516,�k��,4.3,�L
2023/10/15,12:40,0.500,0.749,0.477,0.941,0.672,0.316,0.552,0.518,�k��,4.5,�L
2023/10/15,12:50,0.501,0.751,0.476,0.941,0.674,0.315,0.554,0.518,�k��,4.6,�L
2023/10/15,13:00,0.504,0.752,0.477,0.945,0.674,0.316,0.555,0.518,�k��,6.1,�L
2023/10/15,13:10,0.503,0.753,0.477,0.943,0.675,0.317,0.555,0.518,�k��,6.2,�L
2023/10/15,13:20,0.504,0.751,0.478,0.940,0.673,0.317,0.554,0.519,�k��,7.3,�L
2023/10/15,13:30,0.501,0.751,0.477,0.940,0.674,0.318,0.555,0.518,�k��,7.8,�L
2023/10/15,13:40,0.502,0.750,0.477,0.939,0.672,0.317,0.554,0.518,�k�k��,7.7,�L
2023/10/15,13:50,0.500,0.748,0.476,0.938,0.672,0.316,0.554,0.519,�k�k��,7.6,�L
2023/10/15,14:00,0.500,0.749,0.476,0.936,0.668,0.314,0.555,0.519,�k�k��,7.0,�L
2023/10/15,14:10,0.497,0.747,0.475,0.936,0.666,0.315,0.553,0.517,�k�k��,6.5,�L
2023/10/15,14:20,0.498,0.744,0.475,0.932,0.664,0.315,0.552,0.516,�k�k��,4.5,�L
2023/10/15,14:30,0.495,0.739,0.473,0.928,0.664,0.315,0.550,0.515,�k��,6.1,�L
2023/10/15,14:40,0.493,0.739,0.476,0.931,0.662,0.315,0.552,0.515,�k��,8.7,�L
2023/10/15,14:50,0.498,0.741,0.476,0.932,0.662,0.315,0.553,0.516,�k��,7.5,�L
2023/10/15,15:00,0.501,0.745,0.475,0.934,0.661,0.316,0.553,0.518,�k��,7.8,�L
2023/10/15,15:10,0.499,0.741,0.474,0.930,0.660,0.314,0.552,0.516,�k��,8.3,�L
2023/10/15,15:20,0.497,0.740,0.474,0.927,0.658,0.316,0.551,0.516,�k�k��,8.6,�L
2023/10/15,15:30,0.492,0.736,0.472,0.921,0.651,0.314,0.550,0.514,�k�k��,8.7,�L
2023/10/15,15:40,0.496,0.734,0.471,0.922,0.651,0.312,0.550,0.514,�k�k��,8.2,�L
2023/10/15,15:50,0.495,0.738,0.473,0.929,0.655,0.314,0.552,0.515,�k��,8.6,�L
2023/10/15,16:00,0.499,0.743,0.474,0.929,0.655,0.313,0.552,0.518,�k�k��,7.1,�L
2023/10/15,16:10,0.498,0.744,0.475,0.933,0.659,0.315,0.554,0.519,�k�k��,7.1,�L
2023/10/15,16:20,0.499,0.744,0.472,0.932,0.658,0.314,0.553,0.517,�k�k��,7.0,�L
2023/10/15,16:30,0.496,0.742,0.471,0.929,0.655,0.316,0.550,0.516,�k�k��,8.4,�L
2023/10/15,16:40,0.497,0.742,0.473,0.929,0.657,0.313,0.553,0.518,�k�k��,7.9,�L
2023/10/15,16:50,0.500,0.741,0.473,0.931,0.657,0.314,0.553,0.517,�k�k��,7.5,��
2023/10/15,17:00,0.498,0.744,0.471,0.933,0.658,0.313,0.552,0.519,�k�k��,6.2,��
2023/10/15,17:10,0.498,0.746,0.472,0.934,0.660,0.313,0.552,0.519,�k�k��,6.5,��
2023/10/15,17:20,0.501,0.745,0.470,0.936,0.659,0.313,0.553,0.519,�k�k��,6.6,��
2023/10/15,17:30,0.500,0.749,0.470,0.935,0.661,0.314,0.553,0.520,�k��,5.9,��
2023/10/15,17:40,0.499,0.750,0.470,0.935,0.662,0.313,0.555,0.521,�k��,6.0,��
2023/10/15,17:50,0.499,0.750,0.470,0.936,0.664,0.314,0.553,0.520,�k��,6.5,��
2023/10/15,18:00,0.499,0.752,0.470,0.935,0.665,0.312,0.554,0.520,�k��,7.7,��
2023/10/15,18:10,0.498,0.752,0.471,0.938,0.665,0.312,0.554,0.519,�k��,6.7,�L
2023/10/15,18:20,0.498,0.750,0.470,0.938,0.665,0.313,0.554,0.521,�k��,7.0,�L
2023/10/15,18:30,0.499,0.752,0.470,0.936,0.666,0.312,0.554,0.521,�k��,6.3,��
2023/10/15,18:40,0.499,0.753,0.470,0.938,0.667,0.312,0.553,0.521,�k��,4.3,��
2023/10/15,18:50,0.498,0.755,0.469,0.938,0.666,0.314,0.553,0.520,�k��,3.2,��
2023/10/15,19:00,0.498,0.752,0.470,0.939,0.667,0.312,0.554,0.520,���k��,2.9,��
2023/10/15,19:10,0.499,0.753,0.469,0.937,0.668,0.313,0.555,0.521,�k��,2.6,��
2023/10/15,19:20,0.499,0.754,0.471,0.939,0.666,0.311,0.556,0.521,�k��,3.5,��
2023/10/15,19:30,0.499,0.755,0.471,0.944,0.669,0.312,0.556,0.522,�k��,4.5,��
2023/10/15,19:40,0.499,0.753,0.469,0.939,0.667,0.314,0.554,0.520,�k�k��,5.1,��
2023/10/15,19:50,0.496,0.755,0.471,0.939,0.667,0.312,0.555,0.521,�k�k��,4.2,��
2023/10/15,20:00,0.499,0.755,0.472,0.939,0.669,0.314,0.555,0.522,�k�k��,4.2,��
2023/10/15,20:10,0.498,0.755,0.470,0.941,0.668,0.313,0.558,0.521,�k�k��,3.5,��
2023/10/15,20:20,0.500,0.756,0.471,0.941,0.669,0.312,0.555,0.520,�k�k��,3.0,��
2023/10/15,20:30,0.499,0.755,0.470,0.941,0.669,0.312,0.555,0.521,�k�k��,2.6,��
2023/10/15,20:40,0.498,0.756,0.471,0.941,0.670,0.312,0.558,0.521,�k��,2.3,��
2023/10/15,20:50,0.499,0.755,0.470,0.941,0.671,0.312,0.556,0.521,�k,2.3,��
2023/10/15,21:00,0.499,0.754,0.470,0.941,0.669,0.313,0.556,0.519,�k,3.0,��
2023/10/15,21:10,0.498,0.756,0.470,0.941,0.669,0.313,0.556,0.519,�k,3.6,��
2023/10/15,21:20,0.499,0.754,0.471,0.939,0.669,0.314,0.557,0.521,�k�k��,3.3,��
2023/10/15,21:30,0.497,0.756,0.470,0.941,0.671,0.313,0.556,0.521,�k,2.2,��
2023/10/15,21:40,0.499,0.756,0.473,0.942,0.670,0.314,0.555,0.520,�k,1.7,��
2023/10/15,21:50,0.498,0.756,0.470,0.940,0.672,0.313,0.557,0.519,�k�k��,0.9,��
2023/10/15,22:00,0.500,0.756,0.471,0.939,0.670,0.313,0.557,0.520,��쐼,0.6,��
2023/10/15,22:10,0.500,0.757,0.471,0.940,0.671,0.313,0.555,0.520,��쓌,1.4,��
2023/10/15,22:20,0.501,0.758,0.471,0.944,0.671,0.313,0.555,0.520,��쐼,2.0,��
2023/10/15,22:30,0.500,0.757,0.470,0.938,0.672,0.312,0.557,0.520,��,3.2,��
2023/10/15,22:40,0.498,0.757,0.470,0.942,0.670,0.314,0.556,0.519,���쐼,3.0,��
2023/10/15,22:50,0.498,0.755,0.473,0.942,0.671,0.314,0.558,0.520,��,3.6,��
2023/10/15,23:00,0.498,0.757,0.470,0.940,0.670,0.313,0.556,0.520,��,4.9,��
2023/10/15,23:10,0.500,0.757,0.471,0.942,0.671,0.313,0.555,0.520,���k��,5.8,��
2023/10/15,23:20,0.498,0.757,0.470,0.943,0.670,0.314,0.556,0.520,��,5.9,��
2023/10/15,23:30,0.500,0.757,0.470,0.941,0.672,0.313,0.557,0.519,���k��,5.3,��
2023/10/15,23:40,0.499,0.758,0.470,0.945,0.673,0.313,0.557,0.520,���k��,4.6,��
2023/10/15,23:50,0.498,0.755,0.471,0.942,0.673,0.314,0.558,0.520,�k��,4.8,��
